TimeCST,TemperatureF,Dew PointF,Humidity,Sea Level PressureIn,VisibilityMPH,Wind Direction,Wind SpeedMPH,Gust SpeedMPH,PrecipitationIn,Events,Conditions,WindDirDegrees,DateUTC
12:53 AM,26.1,23.0,88,30.40,10.0,Calm,Calm,-,N/A,,Clear,0,2013-12-27 06:53:00
1:53 AM,25.0,21.0,85,30.40,9.0,Calm,Calm,-,N/A,,Clear,0,2013-12-27 07:53:00
2:53 AM,27.0,21.9,81,30.40,9.0,WSW,3.5,-,N/A,,Clear,250,2013-12-27 08:53:00
3:53 AM,27.0,21.9,81,30.39,9.0,WSW,5.8,-,N/A,,Clear,240,2013-12-27 09:53:00
4:53 AM,25.0,21.9,88,30.40,8.0,Calm,Calm,-,N/A,,Clear,0,2013-12-27 10:53:00
5:53 AM,25.0,21.0,85,30.41,8.0,Calm,Calm,-,N/A,,Clear,0,2013-12-27 11:53:00
6:53 AM,28.9,23.0,78,30.42,9.0,SSW,3.5,-,N/A,,Clear,210,2013-12-27 12:53:00
7:53 AM,32.0,25.0,75,30.42,8.0,Calm,Calm,-,N/A,,Clear,0,2013-12-27 13:53:00
8:53 AM,37.0,28.0,70,30.44,10.0,SW,4.6,-,N/A,,Clear,220,2013-12-27 14:53:00
9:53 AM,41.0,30.0,65,30.46,10.0,SW,8.1,-,N/A,,Clear,220,2013-12-27 15:53:00
10:53 AM,45.0,30.9,58,30.45,10.0,SW,8.1,-,N/A,,Clear,230,2013-12-27 16:53:00
11:53 AM,48.9,30.9,50,30.41,10.0,SSW,6.9,-,N/A,,Clear,210,2013-12-27 17:53:00
12:53 PM,51.1,30.9,46,30.39,10.0,WSW,4.6,-,N/A,,Clear,250,2013-12-27 18:53:00
1:53 PM,53.1,32.0,45,30.37,10.0,SW,8.1,-,N/A,,Clear,230,2013-12-27 19:53:00
2:53 PM,52.0,32.0,47,30.36,10.0,SW,8.1,-,N/A,,Clear,230,2013-12-27 20:53:00
3:53 PM,51.1,32.0,48,30.35,10.0,SW,6.9,-,N/A,,Clear,220,2013-12-27 21:53:00
4:53 PM,48.0,32.0,54,30.36,10.0,SSW,3.5,-,N/A,,Clear,200,2013-12-27 22:53:00
5:53 PM,42.1,30.9,65,30.38,10.0,SSW,4.6,-,N/A,,Clear,200,2013-12-27 23:53:00
6:53 PM,35.1,28.0,76,30.39,10.0,Variable,3.5,-,N/A,,Clear,0,2013-12-28 00:53:00
7:53 PM,35.1,28.9,78,30.37,10.0,South,3.5,-,N/A,,Clear,190,2013-12-28 01:53:00
8:53 PM,33.1,28.0,82,30.37,10.0,South,3.5,-,N/A,,Clear,170,2013-12-28 02:53:00
9:53 PM,39.0,30.0,70,30.36,10.0,SSW,3.5,-,N/A,,Clear,200,2013-12-28 03:53:00
10:53 PM,36.0,28.9,76,30.35,10.0,Calm,Calm,-,N/A,,Clear,0,2013-12-28 04:53:00
11:53 PM,34.0,28.0,79,30.34,10.0,Calm,Calm,-,N/A,,Clear,0,2013-12-28 05:53:00